Regional Weather Roundup
Issued by NWS

Home | Current Version | Previous Version | Text Only | Print | Product List | Glossary On
Versions: 1 2 3 4 5 6 7 8 9 10 11 12 13 14 15 16 17 18 19 20 21 22 23 24 25 26 27 28 29 30 31 32 33 34 35 36 37 38 39 40 41 42 43 44 45 46 47 48 49 50
000
ASUS43 KFSD 150210
RWRSD

WEATHER ROUNDUP FOR SOUTH DAKOTA
NATIONAL WEATHER SERVICE SIOUX FALLS SD
900 PM CDT SUN SEP 14 2014

NOTE: "FAIR" INDICATES FEW OR NO CLOUDS BELOW 12,000 FEET WITH NO
SIGNIFICANT WEATHER AND/OR OBSTRUCTIONS TO VISIBILITY.


SDZ001>005-009-010-012>017-150300-
NORTHWEST AND NORTH CENTRAL SOUTH DAKOTA

CITY           SKY/WX    TMP DP  RH WIND       PRES   REMARKS
BUFFALO          N/A     50  34  54 E8        30.09R
FAITH            N/A     51  40  65 SE3       30.16R
MOBRIDGE       CLOUDY    50  40  68 NE7       30.15R
$$

SDZ012>016-024>037-041>051-057-063-072>074-150300-
SOUTHWEST AND SOUTH CENTRAL SOUTH DAKOTA

CITY           SKY/WX    TMP DP  RH WIND       PRES   REMARKS
RAPID CTY ARPT PTCLDY    43  37  79 E6        30.16R
PIERRE         CLOUDY    52  43  71 N5        30.14R
CUSTER         PTCLDY    40  36  86 E3        30.16R
ELLSWORTH AFB  CLEAR     47  39  71 E5        30.16R
PHILIP         PTCLDY    47  39  74 NE8       30.15R
PINE RIDGE     CLEAR     46  41  82 E8        30.12R
WINNER         CLOUDY    53  43  68 NE7       30.13R
$$

SDZ004>011-016>023-039-040-150300-
NORTHEAST SOUTH DAKOTA

CITY           SKY/WX    TMP DP  RH WIND       PRES   REMARKS
ABERDEEN       MOCLDY    49  44  83 NE6       30.15R
WATERTOWN      CLOUDY    49  43  80 W5        30.15R
SISSETON         N/A     47  43  86 NW3       30.14R
$$

SDZ017-020-022-023-036>040-048>070-150300-
SOUTHEAST SOUTH DAKOTA

CITY           SKY/WX    TMP DP  RH WIND       PRES   REMARKS
SIOUX FALLS    CLOUDY    54  46  74 NE9       30.13R
HURON          CLOUDY    50  48  93 CALM      30.14S
CHAMBERLAIN    CLOUDY    52  42  68 NE9       30.12R
MITCHELL       LGT RAIN  52  46  80 NE5       30.15R
YANKTON        CLOUDY    61  52  72 NE7       30.09R
$$

ABBREVIATIONS USED IN REMARKS
   TC - TEMPERATURE IN CELSIUS
  WCI - WIND CHILL INDEX
   HX - HEAT INDEX
  VSB - VISIBILITY




USA.gov is the U.S. government's official web portal to all federal, state and local government web resources and services.